Location: Sweet Grass
(48.9965°N, 111.9649°W)
Time: 06:36:08
(UTC+00:00)

EO-79 - Pass Details

Date: 29 March 2023
Orbit: 578 x 593 km, 98.0° (Epoch: 03 June)

Event Time Altitude Azimuth Distance (km) Brightness Sun altitude
Rises 10:16:04 0° 8° (N) 2,838 ? -26.8°
Reaches altitude 10° 10:18:18 10° 3° (N) 1,929 ? -26.6°
Enters shadow 10:20:53 33° 340° (NNW) 1,011 ? -26.2°
